N1LTP Weather Reports


time (UTC)temp
C
wind
direction
speed
KPH
gust
KPH
rain 1hr
cm
rain 24hr
cm
rain mn
cm
humidity
%
barometer
mb
20260507150035 13 302 6.4 17.7 0.00 3.56 2.46 71 1007.2
20260507144530 14 305 3.2 8.0 0.00 3.56 2.46 73 1007.1
20260507143045 13 324 4.8 16.1 0.00 3.56 2.46 72 1007.2
20260507141528 13 306 6.4 16.1 0.00 3.56 2.46 73 1007.4
20260507140021 12 327 4.8 14.5 0.00 3.56 2.46 79 1007.4
20260507134517 12 284 1.6 14.5 0.00 3.56 2.46 84 1007.3
20260507133013 11 14 4.8 9.7 2.11 3.56 2.46 91 1007.6
20260507131511 10 336 1.6 12.9 2.11 3.56 2.46 95 1007.5
20260507130026 10 317 4.8 14.5 2.13 3.56 2.46 96 1007.8
20260507124507 10 351 1.6 4.8 2.13 3.56 2.46 97 1007.6
20260507123007 10 327 0.0 4.8 0.03 1.42 0.36 97 1007.5
20260507121505 9 329 0.0 3.2 0.03 1.42 0.36 96 1007.8
20260507120005 9 308 0.0 4.8 0.13 1.42 0.33 96 1007.5
20260507114504 8 304 0.0 3.2 0.18 1.42 0.33 96 1007.5
20260507113001 8 304 0.0 1.6 0.18 1.42 0.33 96 1007.2
20260507111601 8 304 0.0 1.6 0.18 1.42 0.33 96 1007.5
20260507110100 8 306 0.0 4.8 0.05 1.30 0.20 96 1007.7
20260507104604 8 302 0.0 4.8 0.08 1.24 0.15 96 1007.0
20260507103056 8 302 0.0 3.2 0.08 1.24 0.15 95 1006.9
20260507101554 8 69 0.0 4.8 0.08 1.24 0.15 96 1007.2
20260507100058 8 286 0.0 3.2 0.08 1.24 0.15 95 1007.2
20260507094550 8 286 0.0 3.2 0.03 1.17 0.08 95 1006.9
20260507093049 8 287 0.0 4.8 0.03 1.17 0.08 95 1006.8
20260507091548 8 287 0.0 1.6 0.03 1.17 0.08 95 1006.7
20260507090057 9 286 3.2 8.0 0.03 1.17 0.08 94 1006.8
20260507084551 9 321 0.0 8.0 0.00 1.14 0.05 94 1006.3
20260507083042 9 323 4.8 12.9 0.05 1.14 0.05 93 1006.4
20260507081550 10 315 3.2 17.7 0.05 1.14 0.05 93 1006.0
20260507080034 11 298 3.2 8.0 0.05 1.14 0.05 93 1006.8
20260507074529 11 300 3.2 12.9 0.05 1.14 0.05 93 1006.5
20260507073027 12 315 1.6 8.0 0.00 1.09 0.00 92 1005.9
20260507071528 12 303 3.2 11.3 0.00 1.09 0.00 95 1005.2
20260507070023 13 291 0.0 4.8 0.00 1.09 0.00 96 1005.1
20260507064533 13 306 1.6 12.9 0.00 1.09 0.00 96 1005.3
20260507063020 13 5 0.0 3.2 0.00 1.09 0.00 97 1005.4
20260507061518 13 25 0.0 0.0 0.00 1.09 0.00 97 1005.4
20260507060020 13 25 0.0 0.0 0.00 1.09 0.00 97 1005.5
20260507054516 13 25 0.0 1.6 0.00 1.09 0.00 97 1005.8
20260507053013 13 25 0.0 0.0 0.00 1.09 0.00 97 1005.8
20260507051514 13 25 0.0 0.0 0.00 1.09 0.00 97 1005.9
20260507050032 13 25 0.0 1.6 0.00 1.09 0.00 97 1006.2
20260507044511 13 25 0.0 1.6 0.00 1.09 0.00 97 1006.1
20260507043011 13 25 0.0 0.0 0.00 1.09 0.00 97 1006.2
20260507041521 13 25 0.0 0.0 0.00 1.09 0.00 97 1005.8
20260507040007 13 25 0.0 1.6 0.00 1.09 0.00 97 1006.1
20260507034506 13 33 0.0 3.2 0.00 1.09 1.09 97 1006.1
20260507033006 12 96 0.0 4.8 0.00 1.09 1.09 97 1006.3
20260507031508 12 5 0.0 3.2 0.00 1.09 1.09 96 1006.0
20260507030016 12 355 0.0 3.2 1.09 1.09 1.09 96 1006.0
20260507024512 12 313 0.0 4.8 1.09 1.09 1.09 96 1006.0
20260507023003 12 30 0.0 4.8 1.09 1.09 1.09 96 1006.1
20260507021502 12 104 0.0 4.8 1.09 1.09 1.09 96 1006.0
20260507020001 12 185 0.0 4.8 0.00 0.00 0.00 96 1006.2
20260507014602 12 163 0.0 3.2 0.00 0.00 0.00 96 1006.3
20260507013059 12 132 0.0 6.4 0.00 0.00 0.00 96 1006.5
20260507011559 12 171 1.6 3.2 0.00 0.00 0.00 96 1006.5
20260507010111 12 82 0.0 6.4 0.00 0.00 0.00 96 1006.6
20260507004557 12 17 0.0 3.2 0.00 0.00 0.00 96 1006.5
20260507003057 12 258 1.6 6.4 0.00 0.00 0.00 96 1006.5
20260507001605 12 155 0.0 6.4 0.00 0.00 0.00 96 1006.6
20260507000056 12 25 0.0 8.0 0.00 0.00 0.00 96 1006.6
20260506234559 12 135 1.6 6.4 0.00 0.00 0.00 95 1006.4
20260506233055 12 96 1.6 11.3 0.00 0.00 0.00 95 1006.5
20260506231607 12 171 0.0 6.4 0.00 0.00 0.00 95 1006.5
20260506230106 12 202 3.2 14.5 0.00 0.00 0.00 94 1006.4
20260506224551 12 157 1.6 8.0 0.00 0.00 0.00 94 1006.4
20260506223049 13 186 1.6 6.4 0.00 0.00 0.00 94 1006.5
20260506221607 13 136 0.0 8.0 0.00 0.00 0.00 94 1006.7
20260506220104 13 168 1.6 11.3 0.00 0.00 0.00 93 1006.9
20260506214548 13 320 1.6 8.0 0.00 0.00 0.00 92 1007.0
20260506213102 13 360 1.6 8.0 0.00 0.00 0.00 92 1007.0
20260506211543 13 107 1.6 11.3 0.00 0.00 0.00 92 1007.1
20260506210053 13 5 0.0 6.4 0.00 0.00 0.00 92 1007.2
20260506204541 13 202 3.2 12.9 0.00 0.00 0.00 91 1007.3
20260506203039 14 169 0.0 8.0 0.00 0.00 0.00 91 1007.5
20260506201544 14 164 0.0 14.5 0.00 0.00 0.00 91 1007.5
20260506200038 15 155 1.6 8.0 0.00 0.00 0.00 90 1007.6
20260506194536 15 261 3.2 9.7 0.00 0.00 0.00 87 1007.8
20260506193036 16 136 0.0 4.8 0.00 0.00 0.00 84 1007.8
20260506191535 16 277 1.6 9.7 0.00 0.00 0.00 79 1007.8
20260506190035 17 235 1.6 14.5 0.00 0.00 0.00 78 1008.0
20260506184535 17 289 1.6 9.7 0.00 0.00 0.00 76 1007.8
20260506183033 17 204 3.2 12.9 0.00 0.00 0.00 75 1008.0
20260506181539 18 134 3.2 11.3 0.00 0.00 0.00 74 1008.1
20260506180033 18 140 1.6 14.5 0.00 0.00 0.00 74 1008.2
20260506174532 18 211 3.2 14.5 0.00 0.00 0.00 73 1008.5
20260506173027 18 59 3.2 19.3 0.00 0.00 0.00 73 1008.9
20260506171538 19 22 3.2 19.3 0.00 0.00 0.00 71 1008.8
20260506170025 20 292 1.6 16.1 0.00 0.00 0.00 72 1008.7
20260506164524 19 144 8.0 29.0 0.00 0.00 0.00 70 1009.1
20260506163023 19 67 1.6 11.3 0.00 0.00 0.00 71 1009.2
20260506161520 19 36 3.2 14.5 0.00 0.00 0.00 70 1009.3
20260506160020 20 205 4.8 16.1 0.00 0.00 0.00 69 1009.5
20260506154519 20 140 3.2 17.7 0.00 0.00 0.00 70 1009.7
20260506153016 19 252 4.8 16.1 0.00 0.00 0.00 71 1010.0